Weather History for Jaffrey, NH

Change the Weather History Date:

Friday, May 30, 2014

  Actual Average Record
Temperature  
Mean Temperature 56 °F -  
Max Temperature 68 °F 65 °F 84 °F (1999)
Min Temperature 46 °F 44 °F 36 °F (2000)
Degree Days  
Heating Degree Days 9    
Growing Degree Days 6 (Base 50)    
Moisture  
Dew Point 47 °F    
Average Humidity 81    
Maximum Humidity 93    
Minimum Humidity 47    
Precipitation  
Precipitation 0.08 in - - ()
Sea Level Pressure  
Sea Level Pressure 30.09 in    
Wind  
Wind Speed 1 mph (SW)    
Max Wind Speed 9 mph    
Max Gust Speed 16 mph    
Visibility 8 miles    
Events Fog , Rain    
Averages and records for this station are not official NWS values.
T = Trace of Precipitation, MM = Missing Value Source: NWS Daily Summary

Daily Weather History Graph

Daily Weather History Graph

Search for Another Location

Airport:

Trip Planner

Search our weather history database for the weather conditions in past years. The results will help you decide how hot, cold, wet, or windy it might be!

Date:

Astronomy

May. 30, 2014 Rise Set
Actual Time 5:13 AM EDT 8:18 PM EDT
Civil Twilight 4:39 AM EDT 8:52 PM EDT
Nautical Twilight 3:55 AM EDT 9:36 PM EDT
Astronomical Twilight 3:03 AM EDT 10:28 PM EDT
Moon 6:56 AM EDT (5/30) 9:51 PM EDT (5/30)
Length of Visible Light 16h 13m
Length of Day
15h 04m
Waxing Crescent, 4% of the Moon is Illuminated
May 30
Waxing Crescent
Jun 5
First Quarter
Jun 13
Full
Jun 19
Last Quarter
Jun 27
New

Hourly Weather History & Observations

Time (EDT) Temp. Dew Point Humidity Pressure Visibility Wind Dir Wind Speed Gust Speed Precip Events Conditions
12:52 AM 48.0 °F 43.0 °F 83% 30.15 in 10.0 mi Calm Calm - N/A   Clear
1:52 AM 46.9 °F 43.0 °F 86% 30.14 in 10.0 mi SSW 3.5 mph - N/A   Clear
2:52 AM 46.0 °F 43.0 °F 89% 30.12 in 10.0 mi Calm Calm - N/A   Mostly Cloudy
3:52 AM 46.0 °F 43.0 °F 89% 30.12 in 10.0 mi Calm Calm - N/A   Mostly Cloudy
4:52 AM 46.9 °F 44.1 °F 90% 30.10 in 10.0 mi Calm Calm - N/A   Overcast
5:52 AM 48.0 °F 44.1 °F 86% 30.10 in 10.0 mi Calm Calm - N/A   Overcast
6:52 AM 48.9 °F 45.0 °F 86% 30.10 in 10.0 mi SW 3.5 mph - N/A   Overcast
7:52 AM 50.0 °F 45.0 °F 83% 30.11 in 10.0 mi Variable 3.5 mph - N/A   Overcast
8:52 AM 55.0 °F 46.0 °F 72% 30.11 in 10.0 mi Calm Calm - N/A   Scattered Clouds
9:52 AM 61.0 °F 46.9 °F 60% 30.09 in 10.0 mi Calm Calm - N/A   Clear
11:52 AM 64.9 °F 46.0 °F 50% 30.07 in 10.0 mi Calm Calm - N/A   Overcast
12:52 PM 62.1 °F 53.1 °F 72% 30.07 in 10.0 mi SSW 4.6 mph - 0.01 in Rain Light Rain
1:52 PM 66.0 °F 45.0 °F 47% 30.04 in 10.0 mi Variable 3.5 mph - 0.00 in Rain Light Rain
2:52 PM 59.0 °F 52.0 °F 78% 30.05 in 5.0 mi Calm Calm - 0.02 in Rain Light Rain
3:52 PM 64.9 °F 46.9 °F 52% 30.04 in 10.0 mi Calm Calm - 0.00 in   Clear
4:52 PM 66.0 °F 48.9 °F 54% 30.03 in 10.0 mi Calm Calm - N/A   Overcast
5:52 PM 57.0 °F 51.1 °F 81% 30.06 in 5.0 mi WNW 9.2 mph 16.1 mph 0.02 in Rain Light Rain
6:52 PM 55.0 °F 52.0 °F 89% 30.06 in 10.0 mi Calm Calm - 0.01 in Rain Light Rain
7:52 PM 55.9 °F 52.0 °F 87% 30.08 in 9.0 mi Calm Calm - 0.01 in Rain Light Rain
8:52 PM 52.0 °F 50.0 °F 93% 30.08 in 10.0 mi Calm Calm - 0.01 in   Scattered Clouds
9:52 PM 51.1 °F 48.9 °F 92% 30.10 in 10.0 mi Calm Calm - N/A   Clear
10:52 PM 48.9 °F 46.9 °F 93% 30.10 in 6.0 mi Calm Calm - N/A   Partly Cloudy
11:17 PM 48.0 °F 46.0 °F 93% 30.08 in 5.0 mi Calm Calm - N/A   Mostly Cloudy
11:26 PM 48.0 °F 46.0 °F 93% 30.08 in 1.8 mi Calm Calm - N/A   Mostly Cloudy
11:29 PM 48.0 °F 46.0 °F 93% 30.08 in 1.0 mi Calm Calm - N/A   Mist
11:37 PM 48.0 °F 46.0 °F 93% 30.08 in 0.2 mi Calm Calm - N/A Fog Fog
11:52 PM 48.0 °F 46.0 °F 93% 30.10 in 0.2 mi Calm Calm - N/A Fog Fog